Location: Windsor
(43.2292°N, 89.3015°W)
Time: 23:43:13
(UTC+00:00)

VELOX 1 - Visible Passes

Search period start: 28 June 2022 00:00
Search period end: 08 July 2022 00:00
Orbit: 625 x 638 km, 98.4° (Epoch: 24 June)

Date Brightness Start Highest point End Pass type
(mag) Time Alt. Az. Time Alt. Az. Time Alt. Az.
30 Jun ? 08:59:11 10° E 09:00:53 12° ENE 09:02:36 10° NE visible
01 Jul ? 09:18:29 10° ESE 09:21:32 19° ENE 09:24:37 10° NNE visible
02 Jul ? 09:38:28 10° SE 09:42:14 29° ENE 09:46:03 10° N visible
05 Jul ? 09:06:38 10° E 09:08:56 14° ENE 09:11:16 10° NNE visible
06 Jul ? 09:26:14 10° ESE 09:29:35 22° ENE 09:32:58 10° NNE visible
07 Jul ? 09:46:20 10° SE 09:50:18 34° ENE 09:54:17 10° N visible
